| time (UTC) | temp F | wind direction | speed knots | gust knots | rain 1hr in | rain 24hr in | rain mn in | humidity % | barometer mb |
| 20260904122101 | 79 | 190 | 1.7 | 4.3 | 0.00 | 0.00 | 0.00 | 59 | 1009.4 |
| 20260904121600 | 79 | 190 | 2.6 | 6.1 | 0.00 | 0.00 | 0.00 | 58 | 1009.4 |
| 20260904121059 | 80 | 161 | 1.7 | 6.1 | 0.00 | 0.00 | 0.00 | 58 | 1009.2 |
| 20260904120558 | 80 | 180 | 1.7 | 4.3 | 0.00 | 0.00 | 0.00 | 58 | 1009.3 |
| 20260904120058 | 80 | 180 | 1.7 | 4.3 | 0.00 | 0.00 | 0.00 | 57 | 1009.2 |
| 20260904115556 | 80 | 184 | 1.7 | 4.3 | 0.00 | 0.00 | 0.00 | 57 | 1009.2 |
| 20260904115156 | 80 | 183 | 1.7 | 5.2 | 0.00 | 0.00 | 0.00 | 57 | 1009.1 |
| 20260904114556 | 80 | 183 | 3.5 | 7.0 | 0.00 | 0.00 | 0.00 | 57 | 1009.2 |
| 20260904114055 | 80 | 194 | 2.6 | 7.0 | 0.00 | 0.00 | 0.00 | 57 | 1009.1 |
| 20260904113054 | 81 | 195 | 2.6 | 7.0 | 0.00 | 0.00 | 0.00 | 56 | 1009.1 |
| 20260904112552 | 81 | 199 | 3.5 | 7.0 | 0.00 | 0.00 | 0.00 | 56 | 1009.1 |
| 20260904112052 | 81 | 187 | 3.5 | 8.7 | 0.00 | 0.00 | 0.00 | 56 | 1009.2 |
| 20260904111552 | 81 | 206 | 6.1 | 11.3 | 0.00 | 0.00 | 0.00 | 55 | 1009.0 |
| 20260904111051 | 81 | 201 | 5.2 | 8.7 | 0.00 | 0.00 | 0.00 | 55 | 1009.0 |
| 20260904110552 | 82 | 202 | 6.1 | 10.4 | 0.00 | 0.00 | 0.00 | 55 | 1009.0 |
| 20260904110048 | 82 | 208 | 5.2 | 13.0 | 0.00 | 0.00 | 0.00 | 55 | 1009.0 |
| 20260904105547 | 82 | 198 | 7.8 | 13.0 | 0.00 | 0.00 | 0.00 | 55 | 1008.9 |
| 20260904105045 | 81 | 188 | 7.8 | 13.0 | 0.00 | 0.00 | 0.00 | 55 | 1009.0 |
| 20260904104545 | 81 | 206 | 6.1 | 10.4 | 0.00 | 0.00 | 0.00 | 55 | 1009.1 |
| 20260904104046 | 81 | 185 | 4.3 | 7.8 | 0.00 | 0.00 | 0.00 | 55 | 1009.1 |
| 20260904103049 | 81 | 187 | 2.6 | 4.3 | 0.00 | 0.00 | 0.00 | 54 | 1009.1 |
| 20260904102541 | 82 | 194 | 2.6 | 4.3 | 0.00 | 0.00 | 0.00 | 54 | 1009.2 |
| 20260904102039 | 82 | 194 | 2.6 | 7.0 | 0.00 | 0.00 | 0.00 | 53 | 1009.1 |
| 20260904101538 | 82 | 195 | 3.5 | 7.0 | 0.00 | 0.00 | 0.00 | 53 | 1009.1 |
| 20260904101037 | 82 | 182 | 1.7 | 8.7 | 0.00 | 0.00 | 0.00 | 53 | 1009.0 |
| 20260904100537 | 82 | 193 | 2.6 | 10.4 | 0.00 | 0.00 | 0.00 | 52 | 1008.9 |
| 20260904100037 | 83 | 184 | 5.2 | 11.3 | 0.00 | 0.00 | 0.00 | 53 | 1008.9 |
| 20260904095536 | 83 | 154 | 7.0 | 13.0 | 0.00 | 0.00 | 0.00 | 52 | 1008.8 |
| 20260904095036 | 83 | 210 | 8.7 | 13.0 | 0.00 | 0.00 | 0.00 | 52 | 1008.8 |
| 20260904094535 | 83 | 209 | 8.7 | 13.0 | 0.00 | 0.00 | 0.00 | 52 | 1008.7 |
| 20260904094034 | 83 | 207 | 7.0 | 10.4 | 0.00 | 0.00 | 0.00 | 51 | 1008.8 |
| 20260904093039 | 83 | 215 | 7.0 | 13.0 | 0.00 | 0.00 | 0.00 | 50 | 1008.7 |
| 20260904092536 | 84 | 204 | 7.8 | 13.9 | 0.00 | 0.00 | 0.00 | 50 | 1008.7 |
| 20260904092036 | 84 | 208 | 7.8 | 13.9 | 0.00 | 0.00 | 0.00 | 49 | 1008.6 |
| 20260904091539 | 84 | 199 | 7.0 | 14.8 | 0.00 | 0.00 | 0.00 | 49 | 1008.8 |
| 20260904091035 | 84 | 211 | 7.8 | 14.8 | 0.00 | 0.00 | 0.00 | 48 | 1008.8 |
| 20260904090535 | 84 | 210 | 7.0 | 13.0 | 0.00 | 0.00 | 0.00 | 48 | 1008.6 |
| 20260904090041 | 84 | 201 | 7.0 | 13.9 | 0.00 | 0.00 | 0.00 | 47 | 1008.6 |
| 20260904085533 | 84 | 209 | 7.8 | 13.0 | 0.00 | 0.00 | 0.00 | 47 | 1008.6 |
| 20260904085032 | 85 | 199 | 7.8 | 14.8 | 0.00 | 0.00 | 0.00 | 46 | 1008.6 |
| 20260904084532 | 85 | 183 | 7.8 | 14.8 | 0.00 | 0.00 | 0.00 | 45 | 1008.6 |
| 20260904084031 | 85 | 185 | 7.0 | 13.9 | 0.00 | 0.00 | 0.00 | 40 | 1008.6 |
| 20260904083032 | 86 | 210 | 6.1 | 13.9 | 0.00 | 0.00 | 0.00 | 39 | 1008.5 |
| 20260904082531 | 86 | 200 | 7.8 | 13.9 | 0.00 | 0.00 | 0.00 | 39 | 1008.6 |
| 20260904082030 | 86 | 183 | 9.6 | 16.5 | 0.00 | 0.00 | 0.00 | 39 | 1008.6 |
| 20260904081530 | 87 | 234 | 10.4 | 16.5 | 0.00 | 0.00 | 0.00 | 38 | 1008.6 |
| 20260904081029 | 87 | 212 | 7.8 | 13.0 | 0.00 | 0.00 | 0.00 | 37 | 1008.7 |
| 20260904080527 | 87 | 198 | 6.1 | 12.2 | 0.00 | 0.00 | 0.00 | 36 | 1008.6 |
| 20260904080038 | 87 | 214 | 7.8 | 12.2 | 0.00 | 0.00 | 0.00 | 35 | 1008.5 |
| 20260904075527 | 87 | 194 | 7.8 | 12.2 | 0.00 | 0.00 | 0.00 | 35 | 1008.5 |
| 20260904075125 | 87 | 206 | 8.7 | 12.2 | 0.00 | 0.00 | 0.00 | 34 | 1008.5 |
| 20260904074530 | 87 | 198 | 7.0 | 13.0 | 0.00 | 0.00 | 0.00 | 33 | 1008.5 |
| 20260904074024 | 88 | 204 | 7.0 | 14.8 | 0.00 | 0.00 | 0.00 | 33 | 1008.5 |
| 20260904073018 | 88 | 208 | 9.6 | 14.8 | 0.00 | 0.00 | 0.00 | 33 | 1008.6 |
| 20260904072518 | 88 | 206 | 7.0 | 13.0 | 0.00 | 0.00 | 0.00 | 32 | 1008.6 |
| 20260904072021 | 88 | 202 | 8.7 | 13.0 | 0.00 | 0.00 | 0.00 | 32 | 1008.6 |
| 20260904071516 | 88 | 201 | 7.8 | 14.8 | 0.00 | 0.00 | 0.00 | 31 | 1008.7 |
| 20260904071017 | 88 | 202 | 10.4 | 16.5 | 0.00 | 0.00 | 0.00 | 31 | 1008.8 |
| 20260904070515 | 88 | 193 | 9.6 | 16.5 | 0.00 | 0.00 | 0.00 | 31 | 1008.9 |
| 20260904070015 | 88 | 204 | 10.4 | 19.1 | 0.00 | 0.00 | 0.00 | 30 | 1008.9 |
| 20260904065514 | 88 | 198 | 10.4 | 20.0 | 0.00 | 0.00 | 0.00 | 30 | 1009.0 |
| 20260904065013 | 88 | 187 | 7.0 | 12.2 | 0.00 | 0.00 | 0.00 | 30 | 1009.0 |
| 20260904064512 | 88 | 202 | 6.1 | 12.2 | 0.00 | 0.00 | 0.00 | 30 | 1008.9 |
| 20260904064012 | 89 | 212 | 6.1 | 11.3 | 0.00 | 0.00 | 0.00 | 30 | 1008.8 |
| 20260904063014 | 89 | 203 | 6.1 | 11.3 | 0.00 | 0.00 | 0.00 | 30 | 1008.8 |
| 20260904062507 | 89 | 181 | 7.0 | 11.3 | 0.00 | 0.00 | 0.00 | 29 | 1008.8 |
| 20260904062010 | 89 | 200 | 7.0 | 10.4 | 0.00 | 0.00 | 0.00 | 29 | 1008.7 |
| 20260904061519 | 89 | 207 | 7.0 | 11.3 | 0.00 | 0.00 | 0.00 | 29 | 1008.7 |
| 20260904061008 | 89 | 202 | 7.8 | 11.3 | 0.00 | 0.00 | 0.00 | 29 | 1008.7 |
| 20260904060509 | 89 | 198 | 7.0 | 10.4 | 0.00 | 0.00 | 0.00 | 29 | 1008.8 |
| 20260904060009 | 89 | 181 | 5.2 | 9.6 | 0.00 | 0.00 | 0.00 | 29 | 1008.7 |
| 20260904055507 | 88 | 189 | 4.3 | 7.8 | 0.00 | 0.00 | 0.00 | 29 | 1008.7 |
| 20260904055006 | 89 | 189 | 5.2 | 7.8 | 0.00 | 0.00 | 0.00 | 28 | 1008.7 |
| 20260904054511 | 89 | 204 | 3.5 | 8.7 | 0.00 | 0.00 | 0.00 | 28 | 1008.7 |
| 20260904054006 | 89 | 196 | 2.6 | 7.0 | 0.00 | 0.00 | 0.00 | 28 | 1008.6 |
| 20260904053006 | 89 | 191 | 2.6 | 7.0 | 0.00 | 0.00 | 0.00 | 28 | 1008.6 |
| 20260904052506 | 89 | 191 | 2.6 | 7.0 | 0.00 | 0.00 | 0.00 | 28 | 1008.7 |
| 20260904052005 | 89 | 195 | 3.5 | 7.0 | 0.00 | 0.00 | 0.00 | 28 | 1008.7 |
| 20260904051513 | 89 | 185 | 3.5 | 7.0 | 0.00 | 0.00 | 0.00 | 28 | 1008.7 |
| 20260904051003 | 89 | 194 | 3.5 | 7.0 | 0.00 | 0.00 | 0.00 | 28 | 1008.6 |
| 20260904050503 | 89 | 199 | 3.5 | 7.8 | 0.00 | 0.00 | 0.00 | 28 | 1008.6 |
| 20260904050002 | 89 | 194 | 4.3 | 7.8 | 0.00 | 0.00 | 0.00 | 29 | 1008.5 |
| 20260904045502 | 89 | 191 | 2.6 | 5.2 | 0.00 | 0.00 | 0.00 | 28 | 1008.5 |
| 20260904045004 | 89 | 188 | 2.6 | 5.2 | 0.00 | 0.00 | 0.00 | 28 | 1008.4 |
| 20260904044501 | 89 | 188 | 2.6 | 5.2 | 0.00 | 0.00 | 0.00 | 28 | 1008.5 |
| 20260904044004 | 89 | 191 | 2.6 | 7.0 | 0.00 | 0.00 | 0.00 | 28 | 1008.3 |
| 20260904043005 | 88 | 187 | 2.6 | 4.3 | 0.00 | 0.00 | 0.00 | 28 | 1008.3 |
| 20260904042506 | 88 | 187 | 2.6 | 3.5 | 0.00 | 0.00 | 0.00 | 28 | 1008.3 |
| 20260904042003 | 88 | 187 | 1.7 | 4.3 | 0.00 | 0.00 | 0.00 | 27 | 1008.2 |
| 20260904041502 | 88 | 187 | 2.6 | 4.3 | 0.00 | 0.00 | 0.00 | 27 | 1008.2 |
| 20260904041002 | 89 | 187 | 1.7 | 4.3 | 0.00 | 0.00 | 0.00 | 26 | 1008.2 |
| 20260904040503 | 89 | 187 | 2.6 | 4.3 | 0.00 | 0.00 | 0.00 | 26 | 1008.1 |
| 20260904040001 | 90 | 187 | 1.7 | 4.3 | 0.00 | 0.00 | 0.00 | 25 | 1008.1 |
| 20260904035502 | 90 | 186 | 2.6 | 4.3 | 0.00 | 0.00 | 0.00 | 25 | 1008.0 |
| 20260904035004 | 90 | 189 | 2.6 | 4.3 | 0.00 | 0.00 | 0.00 | 25 | 1008.0 |
| 20260904034501 | 90 | 189 | 1.7 | 4.3 | 0.00 | 0.00 | 0.00 | 25 | 1008.0 |
| 20260904034100 | 90 | 189 | 2.6 | 4.3 | 0.00 | 0.00 | 0.00 | 24 | 1008.0 |
| 20260904033103 | 91 | 189 | 1.7 | 5.2 | 0.00 | 0.00 | 0.00 | 24 | 1008.0 |
| 20260904032600 | 91 | 189 | 2.6 | 5.2 | 0.00 | 0.00 | 0.00 | 24 | 1007.9 |
| 20260904032100 | 91 | 189 | 2.6 | 4.3 | 0.00 | 0.00 | 0.00 | 24 | 1007.8 |
| 20260904031600 | 91 | 189 | 1.7 | 4.3 | 0.00 | 0.00 | 0.00 | 23 | 1007.8 |
| 20260904031100 | 92 | 189 | 0.9 | 3.5 | 0.00 | 0.00 | 0.00 | 23 | 1007.7 |
| 20260904030600 | 92 | 189 | 1.7 | 3.5 | 0.00 | 0.00 | 0.00 | 23 | 1007.7 |
| 20260904030059 | 92 | 189 | 1.7 | 7.0 | 0.00 | 0.00 | 0.00 | 22 | 1007.6 |
| 20260904025559 | 92 | 189 | 2.6 | 7.0 | 0.00 | 0.00 | 0.00 | 22 | 1007.5 |
| 20260904025059 | 92 | 188 | 3.5 | 7.0 | 0.00 | 0.00 | 0.00 | 22 | 1007.3 |
| 20260904024600 | 92 | 188 | 1.7 | 4.3 | 0.00 | 0.00 | 0.00 | 21 | 1007.2 |
| 20260904024058 | 92 | 188 | 1.7 | 3.5 | 0.00 | 0.00 | 0.00 | 21 | 1007.2 |
| 20260904023059 | 93 | 188 | 1.7 | 3.5 | 0.00 | 0.00 | 0.00 | 20 | 1007.0 |
| 20260904022559 | 93 | 188 | 1.7 | 3.5 | 0.00 | 0.00 | 0.00 | 20 | 1006.9 |
| 20260904022058 | 93 | 188 | 1.7 | 5.2 | 0.00 | 0.00 | 0.00 | 20 | 1006.9 |
| 20260904021559 | 94 | 188 | 1.7 | 5.2 | 0.00 | 0.00 | 0.00 | 19 | 1006.9 |
| 20260904021058 | 94 | 188 | 2.6 | 4.3 | 0.00 | 0.00 | 0.00 | 19 | 1006.7 |
| 20260904020559 | 94 | 188 | 1.7 | 4.3 | 0.00 | 0.00 | 0.00 | 19 | 1006.7 |
| 20260904020058 | 95 | 188 | 2.6 | 4.3 | 0.00 | 0.00 | 0.00 | 18 | 1006.7 |
| 20260904015558 | 95 | 188 | 2.6 | 5.2 | 0.00 | 0.00 | 0.00 | 18 | 1006.5 |
| 20260904015058 | 95 | 187 | 2.6 | 5.2 | 0.00 | 0.00 | 0.00 | 18 | 1006.5 |
| 20260904014616 | 95 | 198 | 2.6 | 3.5 | 0.00 | 0.00 | 0.00 | 18 | 1006.3 |
| 20260904014058 | 95 | 198 | 1.7 | 3.5 | 0.00 | 0.00 | 0.00 | 18 | 1006.3 |
| 20260904013058 | 96 | 198 | 2.6 | 4.3 | 0.00 | 0.00 | 0.00 | 17 | 1006.1 |
| 20260904012558 | 96 | 191 | 1.7 | 3.5 | 0.00 | 0.00 | 0.00 | 17 | 1006.2 |
| 20260904012057 | 97 | 191 | 0.9 | 3.5 | 0.00 | 0.00 | 0.00 | 17 | 1006.2 |
| 20260904011607 | 97 | 191 | 1.7 | 3.5 | 0.00 | 0.00 | 0.00 | 17 | 1006.1 |
| 20260904011057 | 98 | 191 | 1.7 | 3.5 | 0.00 | 0.00 | 0.00 | 17 | 1006.1 |
| 20260904010557 | 98 | 191 | 1.7 | 3.5 | 0.00 | 0.00 | 0.00 | 16 | 1006.1 |
| 20260904010056 | 98 | 191 | 2.6 | 4.3 | 0.00 | 0.00 | 0.00 | 16 | 1006.1 |
| 20260904005557 | 99 | 191 | 2.6 | 4.3 | 0.00 | 0.00 | 0.00 | 16 | 1006.1 |
| 20260904005056 | 99 | 191 | 2.6 | 4.3 | 0.00 | 0.00 | 0.00 | 16 | 1006.1 |
| 20260904004556 | 99 | 191 | 2.6 | 7.0 | 0.00 | 0.00 | 0.00 | 15 | 1006.0 |
| 20260904004056 | 100 | 150 | 1.7 | 7.0 | 0.00 | 0.00 | 0.00 | 16 | 1006.0 |
| 20260904003101 | 100 | 150 | 3.5 | 7.0 | 0.00 | 0.00 | 0.00 | 16 | 1006.1 |
| 20260904002556 | 100 | 182 | 3.5 | 7.0 | 0.00 | 0.00 | 0.00 | 15 | 1005.9 |
| 20260904002055 | 100 | 181 | 4.3 | 8.7 | 0.00 | 0.00 | 0.00 | 16 | 1006.0 |
| 20260904001555 | 100 | 202 | 4.3 | 8.7 | 0.00 | 0.00 | 0.00 | 16 | 1006.0 |
| 20260904001055 | 101 | 200 | 4.3 | 8.7 | 0.00 | 0.00 | 0.00 | 16 | 1006.0 |
| 20260904000554 | 101 | 185 | 5.2 | 8.7 | 0.00 | 0.00 | 0.00 | 16 | 1005.9 |
| 20260904000058 | 101 | 213 | 4.3 | 7.8 | 0.00 | 0.00 | 0.00 | 15 | 1006.0 |
| 20260903235555 | 101 | 156 | 3.5 | 6.1 | 0.00 | 0.00 | 0.00 | 15 | 1005.9 |
| 20260903235054 | 101 | 190 | 1.7 | 7.0 | 0.00 | 0.00 | 0.00 | 16 | 1005.8 |
| 20260903234554 | 101 | 193 | 3.5 | 7.0 | 0.00 | 0.00 | 0.00 | 16 | 1005.8 |
| 20260903234054 | 100 | 192 | 2.6 | 8.7 | 0.00 | 0.00 | 0.00 | 16 | 1005.9 |
| 20260903233054 | 101 | 204 | 5.2 | 9.6 | 0.00 | 0.00 | 0.00 | 15 | 1005.8 |
| 20260903232553 | 101 | 145 | 2.6 | 12.2 | 0.00 | 0.00 | 0.00 | 16 | 1005.8 |
| 20260903232054 | 101 | 199 | 7.0 | 12.2 | 0.00 | 0.00 | 0.00 | 15 | 1005.8 |
| 20260903231604 | 102 | 188 | 5.2 | 12.2 | 0.00 | 0.00 | 0.00 | 15 | 1005.9 |
| 20260903231054 | 102 | 160 | 7.8 | 12.2 | 0.00 | 0.00 | 0.00 | 14 | 1005.9 |
| 20260903230557 | 102 | 181 | 6.1 | 12.2 | 0.00 | 0.00 | 0.00 | 14 | 1005.9 |
| 20260903230101 | 102 | 205 | 4.3 | 7.8 | 0.00 | 0.00 | 0.00 | 14 | 1005.8 |
| 20260903225553 | 102 | 145 | 3.5 | 9.6 | 0.00 | 0.00 | 0.00 | 13 | 1005.8 |
| 20260903225055 | 102 | 140 | 3.5 | 9.6 | 0.00 | 0.00 | 0.00 | 13 | 1005.7 |
| 20260903224552 | 102 | 179 | 2.6 | 10.4 | 0.00 | 0.00 | 0.00 | 13 | 1005.7 |
| 20260903224052 | 103 | 185 | 2.6 | 7.0 | 0.00 | 0.00 | 0.00 | 12 | 1005.7 |
| 20260903223105 | 103 | 122 | 1.7 | 9.6 | 0.00 | 0.00 | 0.00 | 11 | 1005.7 |
| 20260903222552 | 103 | 72 | 3.5 | 11.3 | 0.00 | 0.00 | 0.00 | 12 | 1005.8 |
| 20260903222052 | 103 | 158 | 4.3 | 11.3 | 0.00 | 0.00 | 0.00 | 12 | 1005.8 |
| 20260903221551 | 103 | 154 | 2.6 | 7.8 | 0.00 | 0.00 | 0.00 | 12 | 1005.8 |
| 20260903221053 | 103 | 228 | 3.5 | 7.0 | 0.00 | 0.00 | 0.00 | 14 | 1005.8 |
| 20260903220550 | 103 | 51 | 1.7 | 6.1 | 0.00 | 0.00 | 0.00 | 15 | 1005.8 |
| 20260903215550 | 102 | 193 | 4.3 | 10.4 | 0.00 | 0.00 | 0.00 | 15 | 1006.1 |
| 20260903215049 | 102 | 192 | 5.2 | 10.4 | 0.00 | 0.00 | 0.00 | 15 | 1006.1 |
| 20260903214552 | 103 | 196 | 5.2 | 8.7 | 0.00 | 0.00 | 0.00 | 15 | 1006.1 |
| 20260903214051 | 103 | 171 | 2.6 | 4.3 | 0.00 | 0.00 | 0.00 | 15 | 1006.2 |
| 20260903213047 | 102 | 244 | 1.7 | 8.7 | 0.00 | 0.00 | 0.00 | 16 | 1006.2 |
| 20260903212646 | 101 | 199 | 4.3 | 8.7 | 0.00 | 0.00 | 0.00 | 16 | 1006.4 |
| 20260903212046 | 102 | 160 | 2.6 | 7.8 | 0.00 | 0.00 | 0.00 | 16 | 1006.5 |
| 20260903211546 | 102 | 134 | 3.5 | 7.8 | 0.00 | 0.00 | 0.00 | 16 | 1006.5 |
| 20260903211048 | 102 | 236 | 5.2 | 7.8 | 0.00 | 0.00 | 0.00 | 16 | 1006.6 |
| 20260903210548 | 102 | 138 | 1.7 | 7.0 | 0.00 | 0.00 | 0.00 | 17 | 1006.6 |
| 20260903210044 | 101 | 214 | 1.7 | 7.0 | 0.00 | 0.00 | 0.00 | 17 | 1006.8 |
| 20260903205543 | 102 | 208 | 3.5 | 7.0 | 0.00 | 0.00 | 0.00 | 16 | 1006.8 |
| 20260903205042 | 102 | 161 | 2.6 | 7.0 | 0.00 | 0.00 | 0.00 | 16 | 1006.9 |
| 20260903204542 | 102 | 343 | 0.0 | 4.3 | 0.00 | 0.00 | 0.00 | 17 | 1007.0 |
| 20260903204041 | 101 | 277 | 1.7 | 5.2 | 0.00 | 0.00 | 0.00 | 17 | 1006.9 |
| 20260903203040 | 101 | 113 | 4.3 | 9.6 | 0.00 | 0.00 | 0.00 | 18 | 1007.1 |
| 20260903202540 | 101 | 210 | 5.2 | 9.6 | 0.00 | 0.00 | 0.00 | 18 | 1007.2 |
| 20260903202044 | 101 | 91 | 4.3 | 8.7 | 0.00 | 0.00 | 0.00 | 18 | 1007.2 |
| 20260903201538 | 101 | 107 | 4.3 | 8.7 | 0.00 | 0.00 | 0.00 | 19 | 1007.1 |
| 20260903201042 | 100 | 188 | 4.3 | 14.8 | 0.00 | 0.00 | 0.00 | 18 | 1007.2 |
| 20260903200536 | 100 | 191 | 6.1 | 14.8 | 0.00 | 0.00 | 0.00 | 19 | 1007.2 |
| 20260903200044 | 100 | 200 | 5.2 | 8.7 | 0.00 | 0.00 | 0.00 | 19 | 1007.4 |
| 20260903195535 | 100 | 198 | 3.5 | 7.8 | 0.00 | 0.00 | 0.00 | 20 | 1007.4 |
| 20260903195038 | 99 | 201 | 3.5 | 7.8 | 0.00 | 0.00 | 0.00 | 20 | 1007.5 |
| 20260903194544 | 100 | 153 | 3.5 | 7.8 | 0.00 | 0.00 | 0.00 | 21 | 1007.7 |
| 20260903194034 | 101 | 230 | 1.7 | 9.6 | 0.00 | 0.00 | 0.00 | 20 | 1007.7 |
| 20260903193034 | 100 | 122 | 2.6 | 8.7 | 0.00 | 0.00 | 0.00 | 20 | 1008.0 |
| 20260903192534 | 100 | 248 | 3.5 | 7.0 | 0.00 | 0.00 | 0.00 | 21 | 1008.0 |
| 20260903192033 | 100 | 78 | 0.9 | 5.2 | 0.00 | 0.00 | 0.00 | 21 | 1008.1 |
| 20260903191535 | 100 | 185 | 1.7 | 7.0 | 0.00 | 0.00 | 0.00 | 21 | 1008.1 |
| 20260903191032 | 100 | 127 | 2.6 | 7.0 | 0.00 | 0.00 | 0.00 | 21 | 1008.3 |
| 20260903190532 | 99 | 99 | 2.6 | 7.8 | 0.00 | 0.00 | 0.00 | 22 | 1008.4 |
| 20260903190029 | 99 | 206 | 1.7 | 7.8 | 0.00 | 0.00 | 0.00 | 22 | 1008.5 |
| 20260903185527 | 98 | 254 | 0.9 | 9.6 | 0.00 | 0.00 | 0.00 | 24 | 1008.5 |
| 20260903185026 | 98 | 218 | 1.7 | 7.8 | 0.00 | 0.00 | 0.00 | 24 | 1008.6 |
| 20260903184524 | 98 | 226 | 4.3 | 9.6 | 0.00 | 0.00 | 0.00 | 23 | 1008.8 |
| 20260903184023 | 97 | 227 | 5.2 | 9.6 | 0.00 | 0.00 | 0.00 | 23 | 1008.8 |
| 20260903183622 | 98 | 212 | 6.1 | 13.9 | 0.00 | 0.00 | 0.00 | 25 | 1009.0 |
| 20260903183035 | 98 | 187 | 3.5 | 13.9 | 0.00 | 0.00 | 0.00 | 25 | 1009.1 |
| 20260903182524 | 97 | 310 | 1.7 | 12.2 | 0.00 | 0.00 | 0.00 | 26 | 1009.2 |
| 20260903182019 | 97 | 216 | 5.2 | 12.2 | 0.00 | 0.00 | 0.00 | 26 | 1009.3 |
| 20260903181525 | 97 | 200 | 3.5 | 10.4 | 0.00 | 0.00 | 0.00 | 27 | 1009.4 |
| 20260903181016 | 96 | 212 | 7.0 | 10.4 | 0.00 | 0.00 | 0.00 | 27 | 1009.7 |
| 20260903180515 | 96 | 198 | 4.3 | 8.7 | 0.00 | 0.00 | 0.00 | 28 | 1009.7 |
| 20260903180014 | 95 | 191 | 3.5 | 11.3 | 0.00 | 0.00 | 0.00 | 28 | 1009.8 |
| 20260903175513 | 96 | 207 | 6.1 | 11.3 | 0.00 | 0.00 | 0.00 | 28 | 1009.9 |
| 20260903175013 | 95 | 173 | 2.6 | 9.6 | 0.00 | 0.00 | 0.00 | 29 | 1010.0 |
| 20260903174516 | 95 | 189 | 5.2 | 9.6 | 0.00 | 0.00 | 0.00 | 29 | 1010.0 |
| 20260903174013 | 95 | 210 | 6.1 | 9.6 | 0.00 | 0.00 | 0.00 | 30 | 1010.0 |
| 20260903173006 | 94 | 203 | 3.5 | 8.7 | 0.00 | 0.00 | 0.00 | 31 | 1010.3 |
| 20260903172505 | 94 | 278 | 4.3 | 9.6 | 0.00 | 0.00 | 0.00 | 31 | 1010.4 |
| 20260903172004 | 94 | 193 | 7.0 | 9.6 | 0.00 | 0.00 | 0.00 | 32 | 1010.4 |
| 20260903171503 | 93 | 205 | 5.2 | 9.6 | 0.00 | 0.00 | 0.00 | 32 | 1010.3 |
| 20260903171100 | 93 | 199 | 4.3 | 9.6 | 0.00 | 0.00 | 0.00 | 32 | 1010.5 |
| 20260903170559 | 92 | 207 | 5.2 | 10.4 | 0.00 | 0.00 | 0.00 | 33 | 1010.7 |
| 20260903170058 | 92 | 192 | 3.5 | 10.4 | 0.00 | 0.00 | 0.00 | 33 | 1010.7 |
| 20260903165556 | 92 | 190 | 4.3 | 9.6 | 0.00 | 0.00 | 0.00 | 33 | 1010.6 |
| 20260903165054 | 92 | 172 | 4.3 | 10.4 | 0.00 | 0.00 | 0.00 | 35 | 1010.7 |
| 20260903164557 | 91 | 213 | 7.0 | 10.4 | 0.00 | 0.00 | 0.00 | 34 | 1010.7 |
| 20260903164052 | 91 | 147 | 5.2 | 7.8 | 0.00 | 0.00 | 0.00 | 36 | 1010.7 |
| 20260903163650 | 91 | 200 | 4.3 | 8.7 | 0.00 | 0.00 | 0.00 | 36 | 1010.7 |
| 20260903163051 | 91 | 198 | 4.3 | 8.7 | 0.00 | 0.00 | 0.00 | 36 | 1010.7 |
| 20260903162550 | 90 | 172 | 3.5 | 8.7 | 0.00 | 0.00 | 0.00 | 37 | 1010.7 |
| 20260903162050 | 90 | 201 | 4.3 | 9.6 | 0.00 | 0.00 | 0.00 | 37 | 1010.7 |
| 20260903161606 | 90 | 182 | 5.2 | 9.6 | 0.00 | 0.00 | 0.00 | 38 | 1010.7 |
| 20260903161050 | 89 | 220 | 5.2 | 9.6 | 0.00 | 0.00 | 0.00 | 38 | 1010.8 |
| 20260903160547 | 89 | 227 | 6.1 | 10.4 | 0.00 | 0.00 | 0.00 | 38 | 1010.8 |
| 20260903160047 | 89 | 186 | 4.3 | 10.4 | 0.00 | 0.00 | 0.00 | 38 | 1010.8 |
| 20260903155546 | 88 | 179 | 6.1 | 11.3 | 0.00 | 0.00 | 0.00 | 39 | 1010.7 |
| 20260903155046 | 88 | 225 | 7.8 | 11.3 | 0.00 | 0.00 | 0.00 | 39 | 1010.7 |
| 20260903154547 | 88 | 239 | 6.1 | 12.2 | 0.00 | 0.00 | 0.00 | 39 | 1010.8 |
| 20260903154046 | 88 | 213 | 4.3 | 12.2 | 0.00 | 0.00 | 0.00 | 40 | 1010.7 |
| 20260903153647 | 87 | 193 | 7.0 | 10.4 | 0.00 | 0.00 | 0.00 | 41 | 1010.7 |
| 20260903153045 | 87 | 216 | 6.1 | 10.4 | 0.00 | 0.00 | 0.00 | 41 | 1010.7 |
| 20260903152548 | 87 | 204 | 5.2 | 7.8 | 0.00 | 0.00 | 0.00 | 42 | 1010.8 |
| 20260903152045 | 86 | 187 | 4.3 | 9.6 | 0.00 | 0.00 | 0.00 | 43 | 1010.8 |
| 20260903151547 | 86 | 184 | 6.1 | 10.4 | 0.00 | 0.00 | 0.00 | 43 | 1010.8 |
| 20260903151045 | 86 | 204 | 5.2 | 8.7 | 0.00 | 0.00 | 0.00 | 43 | 1010.8 |
| 20260903150545 | 85 | 204 | 3.5 | 7.8 | 0.00 | 0.00 | 0.00 | 45 | 1010.9 |
| 20260903150044 | 85 | 134 | 4.3 | 9.6 | 0.00 | 0.00 | 0.00 | 45 | 1010.9 |
| 20260903145547 | 85 | 206 | 3.5 | 7.8 | 0.00 | 0.00 | 0.00 | 46 | 1011.0 |
| 20260903145044 | 85 | 166 | 3.5 | 7.8 | 0.00 | 0.00 | 0.00 | 46 | 1011.0 |
| 20260903144544 | 84 | 198 | 4.3 | 9.6 | 0.00 | 0.00 | 0.00 | 46 | 1011.0 |
| 20260903144045 | 84 | 127 | 5.2 | 9.6 | 0.00 | 0.00 | 0.00 | 46 | 1011.0 |
| 20260903143643 | 84 | 159 | 6.1 | 11.3 | 0.00 | 0.00 | 0.00 | 48 | 1011.0 |
| 20260903143045 | 83 | 195 | 7.8 | 11.3 | 0.00 | 0.00 | 0.00 | 48 | 1010.9 |
| 20260903142544 | 83 | 192 | 7.0 | 10.4 | 0.00 | 0.00 | 0.00 | 48 | 1011.0 |
| 20260903142043 | 83 | 194 | 5.2 | 9.6 | 0.00 | 0.00 | 0.00 | 48 | 1011.0 |
| 20260903141542 | 83 | 184 | 5.2 | 9.6 | 0.00 | 0.00 | 0.00 | 48 | 1011.1 |
| 20260903141046 | 83 | 185 | 5.2 | 9.6 | 0.00 | 0.00 | 0.00 | 48 | 1011.1 |
| 20260903140544 | 83 | 206 | 4.3 | 12.2 | 0.00 | 0.00 | 0.00 | 49 | 1011.1 |
| 20260903140042 | 82 | 208 | 7.8 | 12.2 | 0.00 | 0.00 | 0.00 | 49 | 1011.0 |
| 20260903135541 | 82 | 185 | 4.3 | 8.7 | 0.00 | 0.00 | 0.00 | 49 | 1011.0 |
| 20260903135041 | 82 | 169 | 4.3 | 8.7 | 0.00 | 0.00 | 0.00 | 49 | 1011.0 |
| 20260903134544 | 82 | 177 | 5.2 | 8.7 | 0.00 | 0.00 | 0.00 | 50 | 1011.0 |
| 20260903134040 | 81 | 189 | 5.2 | 8.7 | 0.00 | 0.00 | 0.00 | 50 | 1011.0 |
| 20260903133639 | 80 | 191 | 4.3 | 8.7 | 0.00 | 0.00 | 0.00 | 50 | 1011.0 |
| 20260903133048 | 80 | 159 | 4.3 | 8.7 | 0.00 | 0.00 | 0.00 | 50 | 1011.0 |
| 20260903132538 | 80 | 173 | 3.5 | 8.7 | 0.00 | 0.00 | 0.00 | 50 | 1010.9 |
| 20260903132037 | 80 | 175 | 3.5 | 7.8 | 0.00 | 0.00 | 0.00 | 50 | 1010.7 |
| 20260903131540 | 79 | 169 | 2.6 | 6.1 | 0.00 | 0.00 | 0.00 | 50 | 1010.7 |
| 20260903131035 | 79 | 181 | 3.5 | 6.1 | 0.00 | 0.00 | 0.00 | 50 | 1010.6 |
| 20260903130536 | 78 | 159 | 3.5 | 7.0 | 0.00 | 0.00 | 0.00 | 50 | 1010.5 |
| 20260903130035 | 78 | 177 | 3.5 | 6.1 | 0.00 | 0.00 | 0.00 | 50 | 1010.5 |
| 20260903125535 | 78 | 166 | 2.6 | 4.3 | 0.00 | 0.00 | 0.00 | 50 | 1010.5 |
| 20260903125035 | 77 | 141 | 1.7 | 4.3 | 0.00 | 0.00 | 0.00 | 49 | 1010.3 |
| 20260903124553 | 77 | 133 | 1.7 | 4.3 | 0.00 | 0.00 | 0.00 | 49 | 1010.4 |
| 20260903124033 | 77 | 127 | 1.7 | 4.3 | 0.00 | 0.00 | 0.00 | 48 | 1010.4 |
| 20260903123633 | 77 | 81 | 0.9 | 2.6 | 0.00 | 0.00 | 0.00 | 47 | 1010.3 |
| 20260903123036 | 77 | 81 | 0.9 | 2.6 | 0.00 | 0.00 | 0.00 | 47 | 1010.2 |
| 20260903122535 | 77 | 81 | 0.9 | 4.3 | 0.00 | 0.00 | 0.00 | 47 | 1010.0 |